Location: Boncourt
(49.6160°N, 3.9448°E)
Time: 19:46:18
(UTC+00:00)

CSL-04 Debris - Pass Details

Date: 09 February 2023
Orbit: 826 x 845 km, 98.8° (Epoch: 25 March)

Event Time Altitude Azimuth Distance (km) Brightness Sun altitude
Exits shadow 18:42:02 20° 132° (SE) 1,821 5.5 -18.1°
Maximum altitude 18:45:30 48° 67° (ENE) 1,075 4.3 -18.6°
Drops below altitude 10° 18:50:40 10° 354° (N) 2,442 6.7 -19.5°
Sets 18:53:05 0° 349° (N) 3,378 7.5 -19.9°
